Regional Weather Roundup
Issued by NWS

Home | Current Version | Previous Version | Text Only | Print | Product List | Glossary Off
Versions: 1 2 3 4 5 6 7 8 9 10 11 12 13 14 15 16 17 18 19 20 21 22 23 24 25 26 27 28 29 30 31 32 33 34 35 36 37 38 39 40 41 42 43 44 45 46 47 48 49 50

000
ASUS43 KBIS 291910
RWRND

NORTH DAKOTA REGIONAL WEATHER ROUNDUP
NATIONAL WEATHER SERVICE BISMARCK ND
200 PM CDT FRI APR 29 2016

NOTE: "FAIR" INDICATES FEW OR NO CLOUDS BELOW 12,000 FEET WITH NO
SIGNIFICANT WEATHER AND/OR OBSTRUCTIONS TO VISIBILITY.


NDZ001>003-009>011-017-292000-
NORTHWEST NORTH DAKOTA

CITY           SKY/WX    TMP DP  RH WIND       PRES   REMARKS
WILLISTON      SUNNY     56  26  31 S9G16     30.13F
MINOT          SUNNY     63  22  20 E12G17    30.16F
MINOT AFB      SUNNY     58  25  28 E13G21    30.15F
$$

NDZ018>021-031>035-040>046-292000-
SOUTHWEST NORTH DAKOTA

CITY           SKY/WX    TMP DP  RH WIND       PRES   REMARKS
BISMARCK       SUNNY     58  31  35 E15G25    30.11F
DICKINSON      CLOUDY    53  29  39 SE8G21    30.09F
GARRISON         N/A     60  24  25 E15G23    30.12F
HETTINGER ARPT CLOUDY    53  31  42 SE9       30.11F
$$

NDZ004>008-012>016-024-026-027-054-292000-
NORTHEAST NORTH DAKOTA

CITY           SKY/WX    TMP DP  RH WIND       PRES   REMARKS
GRAND FORKS    MOSUNNY   61  32  33 NE12      30.16F
GRND FRKS AFB  SUNNY     61  30  31 E14G21    30.17F
DEVILS LAKE    SUNNY     56  26  31 NE15G21   30.18F
$$

NDZ022-023-025-028>030-036>039-047>053-292000-
SOUTHEAST NORTH DAKOTA

CITY           SKY/WX    TMP DP  RH WIND       PRES   REMARKS
FARGO          SUNNY     63  32  31 NE13G21   30.10F
JAMESTOWN      SUNNY     60  32  34 NE17G24   30.10F
$$





USA.gov is the U.S. government's official web portal to all federal, state and local government web resources and services.